Location: Dittelspoint
(48.7198°N, 10.7214°E)
Time: 17:27:48
(UTC+00:00)

Cosmos 1190 Rocket - Pass Details

Date: 09 April 2020
Orbit: 757 x 779 km, 74.1° (Epoch: 24 May)

Event Time Altitude Azimuth Distance (km) Brightness Sun altitude
Rises 18:37:43 0° 184° (S) 3,247 7.1 -6.7°
Reaches altitude 10° 18:40:09 10° 178° (S) 2,322 6.3 -7.1°
Maximum altitude 18:45:12 48° 106° (ESE) 1,008 4.2 -7.9°
Drops below altitude 10° 18:50:16 10° 33° (NNE) 2,328 6.4 -8.7°
Sets 18:52:42 0° 28° (NNE) 3,256 7.2 -9.0°
